Location: Peach Mountain Observatory
(42.3967°N, 83.9367°W)
Time: 07:31:00
(UTC-04:00)

deb Explorer IX - Pass Details

Date: 25 January 2020
Orbit: 547 x 1100 km, 38.8° (Epoch: 06 April)

Event Time Altitude Azimuth Distance (km) Brightness Sun altitude
Rises 21:08:11 0° 218° (SW) 3,634 ? -38.3°
Reaches altitude 10° 21:11:02 10° 207° (SSW) 2,764 ? -38.8°
Enters shadow 21:11:12 11° 207° (SSW) 2,717 ? -38.8°
Maximum altitude 21:16:49 30° 149° (SSE) 1,792 - -39.8°
Drops below altitude 10° 21:22:58 10° 92° (E) 2,948 - -40.9°
Sets 21:26:06 0° 82° (E) 3,913 - -41.5°
